{"data":{"norad_id":51859,"epoch":"2026-09-19T11:11:51.871776Z","epoch_age_seconds":141513,"freshness":"FRESH","line1":"1 51859U 22022H   26262.46657259  .00002642  00000+0  96859-4 0  9992","line2":"2 51859  53.1604 206.5839 0001531  75.6444 284.4727 15.31702330252583","mean_motion":15.3170233,"eccentricity":0.0001531,"inclination_deg":53.1604,"raan_deg":206.5839,"arg_perigee_deg":75.6444,"mean_anomaly_deg":284.4727,"bstar":9.6859e-5,"rev_number":25258,"period_min":94.013044949798,"perigee_km":469.6844876211,"apogee_km":471.78161163029,"semimajor_km":6848.8700496257,"source":"CELESTRAK","updated_at":"2026-09-20T09:00:39.945746Z"}}